Other Surface Observations
Issued by NWS

Home | Current Version | Previous Version | Text Only | Print | Product List | Glossary On
Versions: 1 2 3 4 5 6 7 8 9 10 11 12 13 14 15 16 17 18 19 20 21 22 23 24 25 26 27 28 29 30 31 32 33 34 35 36 37 38 39 40 41 42 43 44 45 46 47 48 49 50
000
SXUS52 KTAE 291718
OSOTAE
OSOTAE
North Florida/South Alabama/Southwest Georgia Weather Roundup
National Weather Service Tallahassee Florida
100 PM EDT SAT AUG 29 2015

Note: "fair" indicates few or no clouds below 12,000 feet with no
significant weather and/or obstructions to visibility.

!FLZ017-115-028-034-025-291800
...North Florida...

CITY           SKY/WX    TMP DP  RH WIND       PRES   REMARKS
TALLAHASSEE    LGT RAIN  79  75  87 NE3       30.13S
APALACHICOLA   CLOUDY    79  72  79 NE7       30.11S
PERRY          CLOUDY    83  77  81 CALM      30.11F HX  93
CROSS CITY       N/A     85  75  72 E7        30.11S HX  93
JACKSONVILLE   CLOUDY    85  74  69 E9        30.12S HX  92
$$

!FLZ112-006-005-002-011-291800
...Florida Panhandle...

CITY           SKY/WX    TMP DP  RH WIND       PRES   REMARKS
MARIANNA       PTSUNNY   82  73  74 SE6       30.12F
BONIFAY        NOT AVBL
PANAMA CITY NW PTSUNNY   82  72  71 N6        30.10F
TYNDALL AFB    CLOUDY    80  72  75 E6        30.11R
TYND DRONE APT CLOUDY    81  74  77 E7        30.11S
DE FUNIAK SPR  PTSUNNY   80  73  80 E3        30.13F
EGLIN AFB      MOSUNNY   83  70  64 NE3       30.11S
DESTIN         CLOUDY    83  74  74 N6        30.11R
HURLBURT       CLOUDY    78  73  83 VRB3      30.10F
CRESTVIEW      CLOUDY    84  74  71 NE5       30.13F HX  91
PENSACOLA      CLOUDY    79  69  71 E7        30.11S
$$

!ALZ063-066-291800
...South Alabama...

CITY           SKY/WX    TMP DP  RH WIND       PRES   REMARKS
DOTHAN         CLOUDY    81  72  74 E8        30.17F
OZARK CAIRNS   PTSUNNY   82  73  72 E3        30.13F
FT RUCKER HELI CLOUDY    83  72  69 E5        30.12F
RUCKER HELI 3  FAIR      82  71  69 SE7       30.15S
RUCKER HELI 2  NOT AVBL
FLORALA APT    CLOUDY    79  71  76 VRB5      30.14F
ANDALUSIA      CLOUDY    84  72  67 VRB3      30.13F
TROY           CLOUDY    82  71  69 SE7       30.15S
EUFALA         PTSUNNY   85  73  67 E7        30.14F HX  91
MOBILE         PTSUNNY   86  71  60 E7        30.10F HX  91
$$

!GAZ120>161-291800
...Southwest and South Central Georgia...

CITY           SKY/WX    TMP DP  RH WIND       PRES   REMARKS
THOMASVILLE    RAIN      77  75  94 NE3       30.14F
BAINBRIDGE     LGT RAIN  82  73  74 E6        30.13F
MOODY AFB      CLOUDY    84  73  68 N12       30.11F HX  91
VALDOSTA       CLOUDY    83  75  77 VRB5      30.12F HX  90
MOULTRIE       LGT RAIN  77  73  88 NE3       30.15F
BLAKELY        CLOUDY    81  75  83 NE5       30.15S
ALBANY         CLOUDY    80  70  71 NE10      30.17F
TIFTON         PTSUNNY   76  72  89 NE6       30.15F
FITZGERALD     CLOUDY    78  72  82 NE5       30.18F
CORDELE        CLOUDY    76  73  87 CALM      30.17F
AMERICUS       CLOUDY    73  72  94 E12       30.20S
HOMERVILLE     PTSUNNY   88  73  62 SE6       30.13F HX  96
$$

!GMZ750-755-770-775-291800
...Coastal and Buoy Obs...

STATION/POSITION TIME  TEMP    WIND        PRES    VSBY  WAVE
                       AIR SEA DIR/SP/G                  HT/PER
                 (UTC) (F)     (DEG/KT/KT) (MB)    (MI)  (FT/S)
KEATON BEACH     1700   78     330/  2/  2 1020.0R
CEDAR KEY        1700   81     100/  4/  5 1019.9R
C TOWER          1700   78      60/ 12/ 13 1019.9R
APALACHICOLA BUO 1650   78 85  100/ 10/ 14 1020.0R         2/ 4
PANAMA CITY BUOY 1650   82 85   70/  8/ 10 1019.5F         3/ 6
MOBILE BUOY      1650   86 88     CALM     1019.3R         1/ 5
ORANGE BCH AL BU 1650   82 85  120/ 14/ 17 1018.4R         3/ 6
$$



USA.gov is the U.S. government's official web portal to all federal, state and local government web resources and services.